Location: Nairn
(57.5833°N, 3.8667°W)
Time: 17:06:46
(UTC+00:00)

USA 215 - Pass Details

Date: 07 August 2020
Orbit: 1102 x 1106 km, 123.0° (Epoch: 08 August)

Event Time Altitude Azimuth Distance (km) Brightness Sun altitude
Rises 03:22:40 0° 67° (ENE) 3,930 7.6 -7.2°
Reaches altitude 10° 03:25:15 10° 73° (ENE) 2,970 6.6 -6.9°
Maximum altitude 03:31:37 52° 149° (SSE) 1,352 3.7 -6.3°
Drops below altitude 10° 03:37:58 10° 224° (SW) 2,958 4.8 -5.7°
Enters shadow 03:38:48 - 226° (SW) 3,264 5.0 -5.6°
